Weather History for PAEN - January, 2014

Change the Weather History Date:

Thursday, January 30, 2014

  Actual Average Record
Temperature  
Mean Temperature 26 °F -  
Max Temperature 30 °F 23 °F 41 °F (2007)
Min Temperature 19 °F 5 °F -28 °F (1971)
Degree Days  
Heating Degree Days 38    
Moisture  
Dew Point 22 °F    
Average Humidity 83    
Maximum Humidity 96    
Minimum Humidity 69    
Precipitation  
Precipitation 0.00 in - - ()
Sea Level Pressure  
Sea Level Pressure 30.22 in    
Wind  
Wind Speed 7 mph (NNE)    
Max Wind Speed 8 mph    
Max Gust Speed -    
Visibility 10 miles    
Events      
Averages and records for this station are not official NWS values.
T = Trace of Precipitation, MM = Missing Value Source: NWS Daily Summary

Daily Weather History Graph

Daily Weather History Graph

Search for Another Location

Airport or City:

Trip Planner

Search our weather history database for the weather conditions in past years. The results will help you decide how hot, cold, wet, or windy it might be!

Date:

Astronomy

Jan. 30, 2014 Rise Set
Actual Time 9:26 AM AKST 5:11 PM AKST
Civil Twilight 8:37 AM AKST 6:00 PM AKST
Nautical Twilight 7:45 AM AKST 6:52 PM AKST
Astronomical Twilight 6:55 AM AKST 7:42 PM AKST
Moon 8:44 AM AKST (1/30) 5:56 PM AKST (1/30)
Length of Visible Light 9h 23m
Length of Day
7h 45m
Waning Crescent, 0% of the Moon is Illuminated
Jan 30
Waning Crescent
Jan 30
New
Feb 6
First Quarter
Feb 14
Full
Feb 22
Last Quarter

Hourly Weather History & Observations

Time (AKST) Temp. Windchill Dew Point Humidity Pressure Visibility Wind Dir Wind Speed Gust Speed Precip Events Conditions
12:53 AM 30.0 °F 22.4 °F 26.1 °F 85% 30.17 in 10.0 mi NNE 8.1 mph - N/A   Mostly Cloudy
1:53 AM 28.9 °F 21.9 °F 25.0 °F 85% 30.18 in 10.0 mi NE 6.9 mph - N/A   Scattered Clouds
3:53 AM 28.0 °F 21.7 °F 24.1 °F 85% 30.20 in 10.0 mi NNE 5.8 mph - N/A   Overcast
4:53 AM 28.0 °F 20.0 °F 21.9 °F 78% 30.20 in 10.0 mi NE 8.1 mph - N/A   Mostly Cloudy
5:53 AM 28.9 °F 21.1 °F 23.0 °F 78% 30.21 in 10.0 mi NE 8.1 mph - N/A   Overcast
6:53 AM 28.0 °F 20.8 °F 24.1 °F 85% 30.21 in 10.0 mi NE 6.9 mph - N/A   Mostly Cloudy
7:53 AM 26.1 °F 20.5 °F 21.9 °F 84% 30.22 in 10.0 mi NE 4.6 mph - N/A   Clear
8:53 AM 25.0 °F 20.7 °F 21.9 °F 88% 30.23 in 10.0 mi North 3.5 mph - N/A   Clear
9:53 AM 25.0 °F 17.1 °F 21.0 °F 85% 30.23 in 10.0 mi NNE 6.9 mph - N/A   Clear
10:53 AM 26.1 °F 17.6 °F 21.9 °F 84% 30.24 in 10.0 mi NNE 8.1 mph - N/A   Clear
11:53 AM 28.0 °F 20.0 °F 21.9 °F 78% 30.24 in 10.0 mi NE 8.1 mph - N/A   Clear
12:53 PM 30.0 °F 22.4 °F 21.0 °F 69% 30.24 in 10.0 mi NE 8.1 mph - N/A   Clear
1:53 PM 30.0 °F 24.1 °F 21.9 °F 72% 30.23 in 10.0 mi NNE 5.8 mph - N/A   Clear
2:53 PM 30.9 °F 26.2 °F 24.1 °F 76% 30.23 in 10.0 mi NNE 4.6 mph - N/A   Clear
3:53 PM 30.0 °F 23.2 °F 24.1 °F 79% 30.22 in 10.0 mi NE 6.9 mph - N/A   Clear
4:53 PM 28.9 °F 23.9 °F 21.9 °F 75% 30.23 in 10.0 mi North 4.6 mph - N/A   Clear
5:53 PM 26.1 °F 19.4 °F 21.9 °F 84% 30.23 in 10.0 mi North 5.8 mph - N/A   Clear
6:53 PM 24.1 °F 17.0 °F 21.9 °F 91% 30.23 in 10.0 mi NNE 5.8 mph - N/A   Clear
7:53 PM 25.0 °F 20.7 °F 21.0 °F 85% 30.23 in 10.0 mi NNE 3.5 mph - N/A   Clear
8:53 PM 24.1 °F 17.0 °F 19.9 °F 84% 30.22 in 10.0 mi Variable 5.8 mph - N/A   Clear
9:53 PM 23.0 °F 18.4 °F 19.9 °F 88% 30.23 in 10.0 mi NW 3.5 mph - N/A   Clear
10:53 PM 24.1 °F 18.2 °F 19.9 °F 84% 30.23 in 10.0 mi NNE 4.6 mph - N/A   Clear
11:53 PM 19.9 °F 12.1 °F 19.0 °F 96% 30.24 in 10.0 mi ENE 5.8 mph - N/A   Clear